Weather History for Park Rapids, MN

Change the Weather History Date:

Saturday, December 17, 2011

  Actual Average Record
Temperature  
Mean Temperature 20 °F -  
Max Temperature 30 °F 20 °F 42 °F (1952)
Min Temperature 10 °F 3 °F -29 °F (1983)
Degree Days  
Heating Degree Days 45    
Moisture  
Dew Point 14 °F    
Average Humidity 82    
Maximum Humidity 92    
Minimum Humidity 64    
Precipitation  
Precipitation 0.00 in - - ()
Sea Level Pressure  
Sea Level Pressure 30.12 in    
Wind  
Wind Speed 8 mph (SW)    
Max Wind Speed 16 mph    
Max Gust Speed 22 mph    
Visibility 10 miles    
Events      
Averages and records for this station are not official NWS values.
T = Trace of Precipitation, MM = Missing Value Source: NWS Daily Summary

Daily Weather History Graph

Daily Weather History Graph

Search for Another Location

Airport:

Trip Planner

Search our weather history database for the weather conditions in past years. The results will help you decide how hot, cold, wet, or windy it might be!

Date:

Astronomy

Dec. 17, 2011 Rise Set
Actual Time 8:00 AM CST 4:32 PM CST
Civil Twilight 7:24 AM CST 5:07 PM CST
Nautical Twilight 6:46 AM CST 5:46 PM CST
Astronomical Twilight 6:09 AM CST 6:23 PM CST
Moon No Moon Rise 11:50 AM CST (12/17)
Length of Visible Light 9h 43m
Length of Day
8h 32m
Waning Gibbous, 53% of the Moon is Illuminated
Dec 17
Waning Gibbous
Dec 17
Last Quarter
Dec 24
New
Jan 1
First Quarter
Jan 9
Full

Hourly Weather History & Observations

Time (CST) Temp. Windchill Dew Point Humidity Pressure Visibility Wind Dir Wind Speed Gust Speed Precip Events Conditions
12:38 AM 15.8 °F 7.2 °F 8.6 °F 73% 30.20 in 10.0 mi South 5.8 mph - N/A   Overcast
12:53 AM 15.1 °F 7.7 °F 10.0 °F 80% 30.30 in 10.0 mi South 4.6 mph - N/A   Overcast
1:53 AM 14.0 °F 5.1 °F 10.0 °F 84% 30.25 in 10.0 mi South 5.8 mph - N/A   Overcast
2:42 AM 15.8 °F 6.1 °F 10.4 °F 79% 30.14 in 10.0 mi South 6.9 mph - N/A   Overcast
2:53 AM 12.9 °F 2.6 °F 10.0 °F 88% 30.24 in 10.0 mi South 6.9 mph - N/A   Mostly Cloudy
3:12 AM 12.2 °F 1.7 °F 8.6 °F 85% 30.13 in 10.0 mi South 6.9 mph - N/A   Partly Cloudy
3:53 AM 10.9 °F -0.8 °F 8.1 °F 88% 30.20 in 10.0 mi South 8.1 mph - N/A   Clear
4:06 AM 12.2 °F 1.7 °F 8.6 °F 85% 30.11 in 10.0 mi SSW 6.9 mph - N/A   Scattered Clouds
4:15 AM 14.0 °F 5.1 °F 10.4 °F 86% 30.11 in 10.0 mi South 5.8 mph - N/A   Mostly Cloudy
4:53 AM 17.1 °F 6.6 °F 14.0 °F 88% 30.18 in 10.0 mi SSW 8.1 mph - N/A   Overcast
5:04 AM 17.6 °F 6.4 °F 14.0 °F 86% 30.07 in 10.0 mi South 9.2 mph - N/A   Overcast
5:28 AM 17.6 °F 6.4 °F 14.0 °F 86% 30.06 in 10.0 mi South 9.2 mph - N/A   Overcast
5:53 AM 18.0 °F 5.4 °F 15.1 °F 88% 30.14 in 9.0 mi SSW 11.5 mph - N/A   Overcast
6:53 AM 19.9 °F 6.7 °F 18.0 °F 92% 30.12 in 8.0 mi WSW 13.8 mph - N/A   Overcast
7:42 AM 21.2 °F 10.1 °F 17.6 °F 86% 30.03 in 9.0 mi SW 10.4 mph - N/A   Overcast
7:53 AM 21.0 °F 8.1 °F 18.0 °F 88% 30.12 in 9.0 mi WSW 13.8 mph 18.4 mph N/A   Overcast
8:53 AM 21.0 °F 9.3 °F 18.0 °F 88% 30.12 in 7.0 mi WSW 11.5 mph - N/A   Overcast
9:53 AM 21.9 °F 10.4 °F 19.0 °F 89% 30.11 in 9.0 mi West 11.5 mph - N/A   Overcast
10:48 AM 24.8 °F 13.4 °F 19.4 °F 80% 30.02 in 10.0 mi West 12.7 mph - N/A   Partly Cloudy
10:53 AM 24.1 °F 11.5 °F 19.0 °F 81% 30.11 in 10.0 mi West 15.0 mph - N/A   Partly Cloudy
11:53 AM 28.0 °F 18.6 °F 19.9 °F 72% 30.09 in 10.0 mi West 10.4 mph - N/A   Clear
12:53 PM 28.9 °F 18.2 °F 19.9 °F 69% 30.08 in 10.0 mi West 13.8 mph - N/A   Clear
1:53 PM 30.0 °F 18.7 °F 19.0 °F 64% 30.08 in 10.0 mi WNW 16.1 mph 21.9 mph N/A   Clear
2:53 PM 30.0 °F 20.0 °F 19.0 °F 64% 30.09 in 10.0 mi WNW 12.7 mph - N/A   Clear
3:53 PM 28.9 °F 18.6 °F 19.0 °F 67% 30.11 in 10.0 mi West 12.7 mph - N/A   Clear
4:53 PM 23.0 °F 14.7 °F 16.0 °F 74% 30.13 in 10.0 mi WNW 6.9 mph - N/A   Clear
5:53 PM 17.6 °F 9.3 °F 12.2 °F 79% 30.06 in 10.0 mi West 5.8 mph - N/A   Clear
6:53 PM 19.0 °F - 14.0 °F 81% 30.12 in 10.0 mi Calm Calm - N/A   Clear
7:53 PM 15.1 °F 9.4 °F 12.0 °F 88% 30.13 in 10.0 mi WSW 3.5 mph - N/A   Clear
8:53 PM 14.0 °F 5.1 °F 12.0 °F 92% 30.12 in 10.0 mi SW 5.8 mph - N/A   Clear
9:53 PM 18.0 °F 12.7 °F 12.9 °F 81% 30.12 in 10.0 mi SSW 3.5 mph - N/A   Clear
10:53 PM 19.0 °F 12.3 °F 15.1 °F 85% 30.08 in 10.0 mi South 4.6 mph - N/A   Clear
11:53 PM 15.1 °F 5.2 °F 12.9 °F 91% 30.06 in 10.0 mi South 6.9 mph - N/A   Clear